Погода в Клиновце

Россия / Белгородская область     50°47′14″N   37°17′13″E
темп.,
°C
ветер,
м/с
пор.,
м/с
влажн.,
%
обл.,
%
осадки,
мм/ч
давл.,
гПа
погр.,
м
24 января, пн
пн2400:00−8ссв7169249 0.0 1026410
03:00−8ссв7179197 0.0 1026464
06:00−8ссв81593100 0.2 1026474
09:00−7св71494100 0.7 1027504
12:00−6св71393100 0.3 1027559
15:00−6св61292100 0.3 1027520
18:00−6св61192100 0.1 1028589
21:00−9св499599 0.1 1027258
25 января, вт
вт2500:00−12св389793 0.1 1028146
03:00−16св34100100 0.1 102754
06:00−16ссв359996 0.0 102765
09:00−15св2398100 0.0 102673
12:00−11ссв1192100 0.0 1025117
15:00−9сз1190100 0.0 1023192
18:00−10з2296100 0.0 102235
21:00−10з2396100 0.0 102285
26 января, ср
ср2600:00−12зюз2397100 0.0 102147
03:00−14зюз2497100 0.0 102056
06:00−18зюз22100100 0.0 101925
09:00−13юз2495100 0.0 1019104
12:00−9юз3592100 0.0 1019233
15:00−7юз3591100 0.1 1018388
18:00−8юз2497100 0.3 101899
21:00−9юз249794 0.5 101975
27 января, чт
чт2700:00−10юз229873 0.3 101927
03:00−15зюз1110097 0.3 10199
06:00−13зсз119786 0.1 10199
09:00−14зсз119773 0.3 101917
12:00−9ююз119364 0.0 1018102
15:00−8юз239484 0.0 1017141
18:00−14ю2210091 0.0 101810
21:00−16ю22100100 0.1 101732
28 января, пт
пт2800:00−15ю36100100 0.0 101672
03:00−13ю4109999 0.1 1015183
06:00−10ююв5109681 0.1 1013228
09:00−8ююв51295100 0.3 1011297
12:00−5ю61296100 0.7 1009443
15:00−1ююз61297100 1.8 1007616
18:00−1юз51197100 0.6 1006474
21:00−1юз5119792 1.3 1006565